STARLINK-32754 (62527 NORAD) Tracking and Keplerian Element Data

This shows tracking and keplerian element data for the satellite.

Feedback or suggestion? Click here.




ElementValue
Catalog62527
NameSTARLINK-32754
Epoch Orbit544
Epoch Day35.33335648
Epoch Year2025
RAAN314.8105
Inclination42.9991
Eccentricity0.0001268
Argument of Perigee268.5641
Mean Anonmoly135.4917
Mean Motion15.50689952
Decay Rate-0.00291242
L11 62527U 25004S 25035.33335648 -.00291242 00000+0 -51251-2 0 9990
L22 62527 42.9991 314.8105 0001268 268.5641 135.4917 15.50689952 5442



Live tracking and technical data element details for STARLINK-32754 (NORAD 62527). STARLINK-32754 can be tracked NOW for your location showing map with azimuth and elevation plus other details from your city location.







IsCatalogInMostPopularTable: catalog: 62527, numindb: 19
Update: records affected: 1



GetName: 62527 STARLINK-32754

Hit Count: updated at: Sat, 24 May 2025 15:43:12 GMT